Flag for China Weather past 2 weeks in Fushun, Liaoning, China

Now
75 °F

Sunny.


Feels Like: 77 °F
Forecast: 56 / 87 °F
Wind: 13 mph from Southwest

Location: Shenyang / Taoxian

Current Time: May 23, 2015 at 7:25:16 PM

Latest Report: May 23, 2015 at 6:30 PM


Visibility: 10 mi

Pressure: 29.71 "Hg

Humidity: 36%

Dew point: 46 °F

Location of FushunLocation

Historic Weather in Fushun — Graph

°F

Fushun temperature yesterday

Maximum temperature yesterday: 82 °F (at 11:30 AM)
Minimum temperature yesterday: 61 °F (at 12:30 AM)
Average temperature yesterday: 72 °F

Past Weeks' High & Low Weather Summary

 TemperatureHumidityPressure
High84 °F (May 21, 1:00 PM)100% (May 9, 12:30 AM)30.12 "Hg (May 9, 12:30 AM)
Low36 °F (May 9, 3:30 AM)12% (May 15, 1:00 PM)29.21 "Hg (May 12, 3:00 AM)
Average62 °F54%29.70 "Hg
* Reported May 8 6:00 PM — May 23 6:30 PM, Fushun, Weather by CustomWeather, © 2015

Note: Actual official high and low records may vary slightly from our data, if they occured in-between our weather recording intervals... More about our weather records

Advertising

Fushun weather history for previous 24 hours

 ConditionsComfort  
Time TempWeatherWind HumidityBarometerVisibility
6:30 PM
Sat, May 23
75 °FSunny.13 mph36%29.71 "Hg10 mi
6:00 PM77 °FSunny.13 mph34%29.71 "Hg10 mi
5:30 PM79 °FSunny.15 mph32%29.71 "Hg10 mi
5:00 PM81 °FSunny.15 mph30%29.71 "Hg10 mi
4:30 PM81 °FSunny.13 mph28%29.71 "Hg10 mi
4:00 PM82 °FSunny.15 mph25%29.71 "Hg10 mi
3:30 PM82 °FSunny.17 mph25%29.71 "Hg10 mi
3:00 PM82 °FSunny.17 mph21%29.74 "Hg10 mi
2:30 PM82 °FSunny.17 mph23%29.74 "Hg10 mi
2:00 PM82 °FPassing clouds.20 mph23%29.74 "HgN/A
1:30 PM82 °FPassing clouds.20 mph23%29.74 "HgN/A
1:00 PM82 °FSunny.17 mph23%29.77 "Hg10 mi
12:30 PM82 °FSunny.17 mph25%29.77 "Hg10 mi
12:00 PM81 °FSunny.17 mph24%29.77 "Hg10 mi
11:30 AM81 °FSunny.20 mph24%29.77 "Hg10 mi
11:00 AM81 °FSunny.15 mph26%29.77 "Hg10 mi
10:30 AM79 °FSunny.17 mph26%29.80 "Hg10 mi
10:00 AM77 °FPassing clouds.15 mph28%29.80 "HgN/A
9:30 AM75 °FSunny.15 mph29%29.80 "Hg10 mi
9:00 AM73 °FPassing clouds.13 mph31%29.80 "HgN/A
8:30 AM73 °FSunny.13 mph31%29.80 "Hg10 mi
8:00 AM72 °FSunny.13 mph33%29.80 "Hg10 mi
7:30 AM70 °FPassing clouds.10 mph35%29.80 "HgN/A
7:00 AM68 °FPassing clouds.13 mph38%29.80 "HgN/A
6:30 AM66 °FSunny.8 mph43%29.80 "Hg10 mi
6:00 AM64 °FSunny.6 mph46%29.80 "Hg10 mi
5:30 AM63 °FSunny.6 mph45%29.80 "Hg10 mi
5:00 AM61 °FSunny.6 mph48%29.80 "Hg10 mi
4:30 AM61 °FSunny.3 mph48%29.80 "Hg10 mi
4:00 AM64 °FClear.3 mph40%29.80 "Hg10 mi
3:30 AM64 °FClear.6 mph40%29.77 "Hg10 mi
3:00 AM64 °FPassing clouds.6 mph40%29.77 "HgN/A
2:30 AM64 °FClear.6 mph40%29.77 "Hg10 mi
2:00 AM64 °FPassing clouds.6 mph37%29.77 "HgN/A
1:30 AM64 °FPassing clouds.6 mph37%29.77 "HgN/A
1:00 AM64 °FClear.6 mph37%29.77 "Hg10 mi
12:30 AM64 °FClear.6 mph37%29.77 "Hg10 mi
12:00 AM64 °FClear.3 mph37%29.80 "Hg10 mi
11:30 PM
Fri, May 22
66 °FClear.6 mph35%29.80 "Hg10 mi
11:00 PM66 °FClear.6 mph35%29.80 "Hg10 mi
10:30 PM66 °FClear.3 mph35%29.80 "Hg10 mi
10:00 PM66 °FClear.3 mph35%29.80 "Hg10 mi
9:30 PM66 °FClear.3 mph35%29.77 "Hg10 mi
9:00 PM68 °FClear.6 mph33%29.77 "Hg10 mi
8:30 PM70 °FClear.10 mph29%29.77 "Hg10 mi
8:00 PM72 °FClear.10 mph29%29.77 "Hg10 mi
7:30 PM72 °FClear.10 mph36%29.74 "Hg10 mi
7:00 PM72 °FSunny.13 mph36%29.74 "Hg10 mi
Weather by CustomWeather, © 2015

See weather overviewHow to use our weather pages